Location: Newark
(15.4608°S, 41.1635°W)
Time: 09:21:53
(UTC+00:00)

Vanguard 3 - Pass Details

Date: 05 August 2021
Orbit: 510 x 3260 km, 33.3° (Epoch: 22 September)

Event Time Altitude Azimuth Distance (km) Brightness Sun altitude
Rises 05:56:59 0° 293° (WNW) 6,328 - -45.4°
Reaches altitude 10° 06:01:55 10° 289° (WNW) 4,905 - -44.2°
Maximum altitude 06:14:21 59° 212° (SSW) 1,674 - -41.2°
Exits shadow 06:18:44 27° 143° (SE) 2,100 9.3 -40.2°
Drops below altitude 10° 06:21:14 10° 133° (SE) 2,808 10.2 -39.6°
Sets 06:23:21 0° 128° (SE) 3,515 10.9 -39.1°
